| time (UTC) | temp F | wind direction | speed MPH | gust MPH | rain 1hr in | rain 24hr in | rain mn in | humidity % | barometer mb |
| 20260505025044 | 67 | 179 | 0.0 | 7.0 | 0.00 | 0.00 | 0.00 | 64 | 1008.2 |
| 20260505024551 | 67 | 210 | 1.0 | 7.0 | 0.00 | 0.00 | 0.00 | 63 | 1008.1 |
| 20260505024045 | 67 | 0 | 2.0 | 7.0 | 0.00 | 0.00 | 0.00 | 63 | 1008.0 |
| 20260505023544 | 67 | 212 | 2.0 | 6.0 | 0.00 | 0.00 | 0.00 | 63 | 1007.9 |
| 20260505023057 | 67 | 180 | 1.0 | 5.0 | 0.00 | 0.00 | 0.00 | 62 | 1007.9 |
| 20260505022543 | 67 | 214 | 1.0 | 9.0 | 0.00 | 0.00 | 0.00 | 62 | 1007.9 |
| 20260505022044 | 68 | 0 | 0.0 | 9.0 | 0.00 | 0.00 | 0.00 | 62 | 1007.8 |
| 20260505021557 | 68 | 244 | 0.0 | 6.0 | 0.00 | 0.00 | 0.00 | 61 | 1007.6 |
| 20260505021044 | 68 | 225 | 0.0 | 7.0 | 0.00 | 0.00 | 0.00 | 61 | 1007.5 |
| 20260505020544 | 68 | 0 | 0.0 | 7.0 | 0.00 | 0.00 | 0.00 | 60 | 1007.4 |
| 20260505020056 | 69 | 213 | 2.0 | 7.0 | 0.00 | 0.00 | 0.00 | 60 | 1007.3 |
| 20260505015544 | 69 | 0 | 0.0 | 6.0 | 0.00 | 0.00 | 0.00 | 59 | 1007.1 |
| 20260505015044 | 69 | 0 | 0.0 | 7.0 | 0.00 | 0.00 | 0.00 | 59 | 1007.1 |
| 20260505014558 | 69 | 0 | 1.0 | 9.0 | 0.00 | 0.00 | 0.00 | 58 | 1007.0 |
| 20260505014045 | 69 | 227 | 1.0 | 9.0 | 0.00 | 0.00 | 0.00 | 58 | 1007.0 |
| 20260505013545 | 70 | 237 | 2.0 | 9.0 | 0.00 | 0.00 | 0.00 | 58 | 1007.1 |
| 20260505013055 | 70 | 223 | 1.0 | 7.0 | 0.00 | 0.00 | 0.00 | 57 | 1007.1 |
| 20260505012543 | 70 | 0 | 0.0 | 7.0 | 0.00 | 0.00 | 0.00 | 57 | 1007.0 |
| 20260505012046 | 70 | 235 | 0.0 | 9.0 | 0.00 | 0.00 | 0.00 | 56 | 1007.1 |
| 20260505011556 | 71 | 0 | 1.0 | 9.0 | 0.00 | 0.00 | 0.00 | 56 | 1007.0 |
| 20260505011048 | 71 | 250 | 1.0 | 9.0 | 0.00 | 0.00 | 0.00 | 56 | 1007.1 |
| 20260505010543 | 71 | 190 | 1.0 | 7.0 | 0.00 | 0.00 | 0.00 | 55 | 1007.0 |
| 20260505005544 | 72 | 0 | 2.0 | 9.0 | 0.00 | 0.00 | 0.00 | 54 | 1006.9 |
| 20260505005044 | 72 | 0 | 2.0 | 9.0 | 0.00 | 0.00 | 0.00 | 54 | 1006.9 |
| 20260505004552 | 72 | 198 | 0.0 | 11.0 | 0.00 | 0.00 | 0.00 | 53 | 1006.8 |
| 20260505004044 | 73 | 0 | 0.0 | 11.0 | 0.00 | 0.00 | 0.00 | 53 | 1006.9 |
| 20260505003547 | 73 | 179 | 0.0 | 10.0 | 0.00 | 0.00 | 0.00 | 53 | 1006.8 |
| 20260505003050 | 73 | 168 | 1.0 | 11.0 | 0.00 | 0.00 | 0.00 | 52 | 1006.8 |
| 20260505002548 | 74 | 214 | 2.0 | 11.0 | 0.00 | 0.00 | 0.00 | 51 | 1006.8 |
| 20260505002048 | 74 | 198 | 1.0 | 9.0 | 0.00 | 0.00 | 0.00 | 50 | 1006.8 |
| 20260505001554 | 74 | 178 | 2.0 | 10.0 | 0.00 | 0.00 | 0.00 | 49 | 1006.6 |
| 20260505001047 | 75 | 0 | 2.0 | 10.0 | 0.00 | 0.00 | 0.00 | 49 | 1006.6 |
| 20260505000547 | 75 | 0 | 1.0 | 13.0 | 0.00 | 0.00 | 0.00 | 49 | 1006.5 |
| 20260505000100 | 75 | 191 | 1.0 | 15.0 | 0.00 | 0.00 | 0.00 | 48 | 1006.4 |
| 20260504235548 | 76 | 221 | 2.0 | 15.0 | 0.00 | 0.00 | 0.00 | 47 | 1006.4 |
| 20260504235048 | 76 | 194 | 4.0 | 14.0 | 0.00 | 0.00 | 0.00 | 47 | 1006.4 |
| 20260504234550 | 76 | 173 | 2.0 | 14.0 | 0.00 | 0.00 | 0.00 | 48 | 1006.5 |
| 20260504234050 | 76 | 249 | 2.0 | 12.0 | 0.00 | 0.00 | 0.00 | 48 | 1006.5 |
| 20260504233548 | 77 | 219 | 1.0 | 10.0 | 0.00 | 0.00 | 0.00 | 47 | 1006.6 |
| 20260504233054 | 77 | 0 | 0.0 | 8.0 | 0.00 | 0.00 | 0.00 | 48 | 1006.5 |
| 20260504232548 | 77 | 0 | 2.0 | 9.0 | 0.00 | 0.00 | 0.00 | 48 | 1006.6 |
| 20260504232052 | 77 | 0 | 2.0 | 11.0 | 0.00 | 0.00 | 0.00 | 48 | 1006.7 |
| 20260504231551 | 76 | 225 | 2.0 | 11.0 | 0.00 | 0.00 | 0.00 | 48 | 1006.7 |
| 20260504231047 | 76 | 191 | 2.0 | 17.0 | 0.00 | 0.00 | 0.00 | 49 | 1006.7 |
| 20260504230551 | 76 | 220 | 4.0 | 17.0 | 0.00 | 0.00 | 0.00 | 48 | 1006.8 |
| 20260504230056 | 76 | 197 | 2.0 | 16.0 | 0.00 | 0.00 | 0.00 | 47 | 1006.8 |
| 20260504225548 | 77 | 200 | 6.0 | 20.0 | 0.00 | 0.00 | 0.00 | 46 | 1006.8 |
| 20260504225053 | 77 | 0 | 2.0 | 20.0 | 0.00 | 0.00 | 0.00 | 46 | 1006.8 |
| 20260504224559 | 77 | 236 | 6.0 | 20.0 | 0.00 | 0.00 | 0.00 | 46 | 1006.9 |
| 20260504224050 | 78 | 221 | 4.0 | 14.0 | 0.00 | 0.00 | 0.00 | 46 | 1006.9 |
| 20260504223544 | 78 | 207 | 8.0 | 14.0 | 0.00 | 0.00 | 0.00 | 46 | 1006.9 |
| 20260504223056 | 78 | 0 | 4.0 | 14.0 | 0.00 | 0.00 | 0.00 | 45 | 1006.9 |
| 20260504222548 | 78 | 195 | 5.0 | 14.0 | 0.00 | 0.00 | 0.00 | 45 | 1006.8 |
| 20260504222047 | 78 | 168 | 6.0 | 16.0 | 0.00 | 0.00 | 0.00 | 45 | 1006.9 |
| 20260504221554 | 78 | 169 | 5.0 | 16.0 | 0.00 | 0.00 | 0.00 | 45 | 1007.0 |
| 20260504221047 | 78 | 209 | 4.0 | 17.0 | 0.00 | 0.00 | 0.00 | 46 | 1006.9 |
| 20260504220548 | 78 | 237 | 6.0 | 17.0 | 0.00 | 0.00 | 0.00 | 45 | 1006.8 |
| 20260504220110 | 78 | 165 | 3.0 | 17.0 | 0.00 | 0.00 | 0.00 | 46 | 1006.9 |
| 20260504215548 | 78 | 188 | 8.0 | 17.0 | 0.00 | 0.00 | 0.00 | 45 | 1007.0 |
| 20260504215049 | 78 | 187 | 6.0 | 16.0 | 0.00 | 0.00 | 0.00 | 46 | 1007.0 |
| 20260504214554 | 79 | 289 | 5.0 | 14.0 | 0.00 | 0.00 | 0.00 | 44 | 1006.9 |
| 20260504214048 | 79 | 241 | 4.0 | 16.0 | 0.00 | 0.00 | 0.00 | 43 | 1007.0 |
| 20260504213548 | 79 | 194 | 6.0 | 16.0 | 0.00 | 0.00 | 0.00 | 43 | 1007.0 |
| 20260504213059 | 79 | 272 | 5.0 | 16.0 | 0.00 | 0.00 | 0.00 | 43 | 1007.0 |
| 20260504212544 | 79 | 215 | 2.0 | 15.0 | 0.00 | 0.00 | 0.00 | 45 | 1007.1 |
| 20260504212043 | 79 | 200 | 3.0 | 15.0 | 0.00 | 0.00 | 0.00 | 45 | 1007.1 |
| 20260504211556 | 79 | 259 | 5.0 | 14.0 | 0.00 | 0.00 | 0.00 | 44 | 1007.0 |
| 20260504211046 | 79 | 248 | 7.0 | 14.0 | 0.00 | 0.00 | 0.00 | 43 | 1007.2 |
| 20260504210545 | 79 | 0 | 4.0 | 17.0 | 0.00 | 0.00 | 0.00 | 44 | 1007.3 |
| 20260504210055 | 79 | 239 | 3.0 | 17.0 | 0.00 | 0.00 | 0.00 | 43 | 1007.3 |
| 20260504205544 | 79 | 221 | 5.0 | 18.0 | 0.00 | 0.00 | 0.00 | 43 | 1007.4 |
| 20260504205044 | 79 | 148 | 8.0 | 18.0 | 0.00 | 0.00 | 0.00 | 44 | 1007.4 |
| 20260504204552 | 80 | 0 | 4.0 | 17.0 | 0.00 | 0.00 | 0.00 | 44 | 1007.3 |
| 20260504204044 | 80 | 178 | 4.0 | 17.0 | 0.00 | 0.00 | 0.00 | 42 | 1007.4 |
| 20260504203545 | 80 | 165 | 2.0 | 13.0 | 0.00 | 0.00 | 0.00 | 45 | 1007.6 |
| 20260504203053 | 80 | 234 | 4.0 | 13.0 | 0.00 | 0.00 | 0.00 | 43 | 1007.6 |
| 20260504202544 | 79 | 254 | 4.0 | 16.0 | 0.00 | 0.00 | 0.00 | 44 | 1007.6 |
| 20260504202043 | 79 | 229 | 5.0 | 16.0 | 0.00 | 0.00 | 0.00 | 43 | 1007.7 |
| 20260504201551 | 79 | 237 | 4.0 | 11.0 | 0.00 | 0.00 | 0.00 | 42 | 1007.7 |
| 20260504201045 | 79 | 168 | 4.0 | 12.0 | 0.00 | 0.00 | 0.00 | 43 | 1007.9 |
| 20260504200544 | 79 | 208 | 5.0 | 18.0 | 0.00 | 0.00 | 0.00 | 44 | 1007.9 |
| 20260504200101 | 79 | 0 | 6.0 | 18.0 | 0.00 | 0.00 | 0.00 | 44 | 1008.0 |
| 20260504195542 | 79 | 291 | 6.0 | 17.0 | 0.00 | 0.00 | 0.00 | 43 | 1008.0 |
| 20260504195043 | 79 | 242 | 7.0 | 18.0 | 0.00 | 0.00 | 0.00 | 43 | 1008.0 |
| 20260504194556 | 78 | 248 | 6.0 | 18.0 | 0.00 | 0.00 | 0.00 | 44 | 1008.0 |
| 20260504194047 | 79 | 265 | 5.0 | 24.0 | 0.00 | 0.00 | 0.00 | 43 | 1008.1 |
| 20260504193544 | 79 | 167 | 6.0 | 24.0 | 0.00 | 0.00 | 0.00 | 45 | 1008.3 |
| 20260504193052 | 79 | 188 | 7.0 | 16.0 | 0.00 | 0.00 | 0.00 | 45 | 1008.2 |
| 20260504192544 | 78 | 0 | 6.0 | 16.0 | 0.00 | 0.00 | 0.00 | 45 | 1008.3 |
| 20260504192044 | 78 | 231 | 5.0 | 15.0 | 0.00 | 0.00 | 0.00 | 45 | 1008.3 |
| 20260504191557 | 78 | 172 | 4.0 | 16.0 | 0.00 | 0.00 | 0.00 | 45 | 1008.4 |
| 20260504191044 | 78 | 211 | 5.0 | 16.0 | 0.00 | 0.00 | 0.00 | 47 | 1008.6 |
| 20260504190544 | 78 | 292 | 7.0 | 19.0 | 0.00 | 0.00 | 0.00 | 44 | 1008.5 |
| 20260504190108 | 77 | 161 | 6.0 | 19.0 | 0.00 | 0.00 | 0.00 | 46 | 1008.5 |
| 20260504185544 | 77 | 220 | 7.0 | 15.0 | 0.00 | 0.00 | 0.00 | 44 | 1008.6 |
| 20260504185043 | 77 | 197 | 9.0 | 17.0 | 0.00 | 0.00 | 0.00 | 47 | 1008.5 |
| 20260504184611 | 77 | 198 | 6.0 | 17.0 | 0.00 | 0.00 | 0.00 | 46 | 1008.5 |
| 20260504184045 | 77 | 186 | 8.0 | 17.0 | 0.00 | 0.00 | 0.00 | 46 | 1008.6 |
| 20260504183545 | 77 | 205 | 6.0 | 17.0 | 0.00 | 0.00 | 0.00 | 47 | 1008.7 |
| 20260504183059 | 77 | 238 | 7.0 | 16.0 | 0.00 | 0.00 | 0.00 | 46 | 1008.6 |
| 20260504182545 | 77 | 186 | 6.0 | 16.0 | 0.00 | 0.00 | 0.00 | 47 | 1008.7 |
| 20260504182044 | 77 | 213 | 7.0 | 17.0 | 0.00 | 0.00 | 0.00 | 45 | 1008.7 |
| 20260504181556 | 77 | 244 | 8.0 | 17.0 | 0.00 | 0.00 | 0.00 | 46 | 1008.8 |
| 20260504181044 | 76 | 237 | 3.0 | 20.0 | 0.00 | 0.00 | 0.00 | 47 | 1008.9 |
| 20260504180545 | 76 | 264 | 6.0 | 21.0 | 0.00 | 0.00 | 0.00 | 48 | 1008.9 |
| 20260504180053 | 76 | 193 | 4.0 | 21.0 | 0.00 | 0.00 | 0.00 | 48 | 1008.9 |
| 20260504175544 | 76 | 234 | 6.0 | 18.0 | 0.00 | 0.00 | 0.00 | 46 | 1009.0 |
| 20260504175045 | 76 | 205 | 6.0 | 19.0 | 0.00 | 0.00 | 0.00 | 48 | 1009.0 |
| 20260504174600 | 76 | 248 | 8.0 | 19.0 | 0.00 | 0.00 | 0.00 | 47 | 1009.0 |
| 20260504174044 | 76 | 200 | 4.0 | 18.0 | 0.00 | 0.00 | 0.00 | 48 | 1009.0 |
| 20260504173545 | 76 | 187 | 6.0 | 18.0 | 0.00 | 0.00 | 0.00 | 49 | 1009.0 |
| 20260504173057 | 75 | 175 | 7.0 | 19.0 | 0.00 | 0.00 | 0.00 | 49 | 1009.0 |
| 20260504172543 | 75 | 242 | 5.0 | 19.0 | 0.00 | 0.00 | 0.00 | 48 | 1009.0 |
| 20260504172044 | 75 | 229 | 5.0 | 19.0 | 0.00 | 0.00 | 0.00 | 48 | 1009.1 |
| 20260504171556 | 75 | 248 | 6.0 | 19.0 | 0.00 | 0.00 | 0.00 | 49 | 1009.2 |
| 20260504171044 | 75 | 188 | 7.0 | 17.0 | 0.00 | 0.00 | 0.00 | 49 | 1009.1 |
| 20260504170545 | 75 | 175 | 5.0 | 16.0 | 0.00 | 0.00 | 0.00 | 48 | 1009.1 |
| 20260504151048 | 70 | 182 | 4.0 | 21.0 | 0.00 | 0.00 | 0.00 | 53 | 1010.1 |
| 20260504150544 | 70 | 224 | 8.0 | 21.0 | 0.00 | 0.00 | 0.00 | 52 | 1010.2 |
| 20260504141044 | 67 | 200 | 7.0 | 18.0 | 0.00 | 0.00 | 0.00 | 56 | 1011.0 |
| 20260504140545 | 67 | 248 | 6.0 | 17.0 | 0.00 | 0.00 | 0.00 | 56 | 1011.0 |
| 20260504130544 | 62 | 0 | 2.0 | 10.0 | 0.00 | 0.00 | 0.00 | 69 | 1010.9 |
| 20260504110545 | 58 | 246 | 0.0 | 5.0 | 0.00 | 0.00 | 0.00 | 73 | 1010.6 |
| 20260504100544 | 58 | 0 | 0.0 | 3.0 | 0.00 | 0.00 | 0.00 | 74 | 1010.8 |
| 20260504081603 | 58 | 0 | 0.0 | 4.0 | 0.00 | 0.00 | 0.00 | 76 | 1011.1 |
| 20260504081044 | 58 | 0 | 0.0 | 4.0 | 0.00 | 0.00 | 0.00 | 76 | 1011.1 |
| 20260504080544 | 58 | 0 | 0.0 | 2.0 | 0.00 | 0.00 | 0.00 | 76 | 1011.1 |
| 20260504050545 | 58 | 0 | 0.0 | 4.0 | 0.00 | 0.00 | 0.00 | 73 | 1012.7 |
| 20260504045544 | 58 | 0 | 0.0 | 4.0 | 0.00 | 0.00 | 0.00 | 73 | 1012.8 |
| 20260504045048 | 58 | 0 | 0.0 | 4.0 | 0.00 | 0.00 | 0.00 | 74 | 1012.8 |
| 20260504044559 | 58 | 0 | 0.0 | 3.0 | 0.00 | 0.00 | 0.00 | 74 | 1012.9 |
| 20260504044044 | 58 | 0 | 0.0 | 2.0 | 0.00 | 0.00 | 0.00 | 73 | 1012.9 |
| 20260504043544 | 58 | 0 | 0.0 | 0.0 | 0.00 | 0.00 | 0.00 | 73 | 1013.0 |
| 20260504043053 | 58 | 0 | 0.0 | 0.0 | 0.00 | 0.00 | 0.00 | 72 | 1013.0 |
| 20260504042544 | 58 | 0 | 0.0 | 0.0 | 0.00 | 0.00 | 0.00 | 72 | 1013.1 |
| 20260504042050 | 59 | 0 | 0.0 | 0.0 | 0.00 | 0.00 | 0.00 | 71 | 1013.2 |
| 20260504041551 | 59 | 0 | 0.0 | 0.0 | 0.00 | 0.00 | 0.00 | 70 | 1013.2 |
| 20260504041048 | 59 | 0 | 0.0 | 0.0 | 0.00 | 0.00 | 0.00 | 69 | 1013.3 |
| 20260504040549 | 60 | 0 | 0.0 | 0.0 | 0.00 | 0.00 | 0.00 | 68 | 1013.3 |
| 20260504040105 | 60 | 0 | 0.0 | 0.0 | 0.00 | 0.00 | 0.00 | 68 | 1013.2 |
| 20260504035547 | 60 | 0 | 0.0 | 0.0 | 0.00 | 0.00 | 0.00 | 68 | 1013.3 |
| 20260504035049 | 61 | 0 | 0.0 | 0.0 | 0.00 | 0.00 | 0.00 | 67 | 1013.3 |
| 20260504034600 | 61 | 0 | 0.0 | 0.0 | 0.00 | 0.00 | 0.00 | 67 | 1013.4 |
| 20260504034051 | 61 | 0 | 0.0 | 0.0 | 0.00 | 0.00 | 0.00 | 67 | 1013.3 |
| 20260504033545 | 61 | 0 | 0.0 | 0.0 | 0.00 | 0.00 | 0.00 | 66 | 1013.5 |
| 20260504033125 | 61 | 0 | 0.0 | 0.0 | 0.00 | 0.00 | 0.00 | 66 | 1013.6 |
| 20260504032544 | 62 | 0 | 0.0 | 0.0 | 0.00 | 0.00 | 0.00 | 65 | 1013.6 |
| 20260504032045 | 62 | 0 | 0.0 | 0.0 | 0.00 | 0.00 | 0.00 | 65 | 1013.7 |
| 20260504031557 | 62 | 0 | 0.0 | 0.0 | 0.00 | 0.00 | 0.00 | 65 | 1013.7 |
| 20260504031048 | 62 | 0 | 0.0 | 0.0 | 0.00 | 0.00 | 0.00 | 64 | 1013.7 |
| 20260504030549 | 62 | 0 | 0.0 | 0.0 | 0.00 | 0.00 | 0.00 | 64 | 1013.7 |
| 20260504030056 | 63 | 0 | 0.0 | 0.0 | 0.00 | 0.00 | 0.00 | 64 | 1013.7 |
| 20260504025548 | 63 | 0 | 0.0 | 0.0 | 0.00 | 0.00 | 0.00 | 64 | 1013.6 |